QPF
0.08 0.02 0.03 0.06 0.10 0.13 0.39 0.35 0.00 0.00 0.00 0.00 0.00 0.00 0.00 0.00 0.00 0.00 0.00 0.00 0.00 0.00 0.00 0.00 0.00 0.00 0.00 0.00 0.00 0.00 0.00 0.00 0.00 0.00 0.00 0.00 0.00 0.00 0.00 0.00 0.00 0.00 0.00 0.00 0.00
0.01 0.01 0.03 0.03 0.07 0.10 0.57 0.29 0.00 0.00 0.00 0.00 0.00 0.00 0.00 0.00 0.00 0.00 0.00 0.00 0.00 0.00 0.00 0.00 0.00 0.00 0.00 0.00 0.00 0.00 0.00 0.00 0.00 0.00 0.00 0.00 0.00 0.00 0.00 0.00 0.00 0.00 0.00 0.00 0.00
0.01 0.01 0.02 0.02 0.05 0.16 0.48 0.07 0.00 0.00 0.00 0.00 0.00 0.00 0.00 0.00 0.00 0.00 0.00 0.00 0.00 0.00 0.00 0.00 0.00 0.00 0.00 0.00 0.00 0.00 0.00 0.00 0.00 0.00 0.00 0.00 0.00 0.00 0.00 0.00 0.00 0.00 0.00 0.00 0.00
0.00 0.00 0.00 0.03 0.08 0.27 0.27 0.00 0.00 0.00 0.00 0.00 0.00 0.00 0.00 0.00 0.00 0.00 0.00 0.00 0.00 0.00 0.00 0.00 0.00 0.00 0.00 0.00 0.00 0.00 0.00 0.00 0.00 0.00 0.00 0.00 0.00 0.00 0.00 0.00 0.00 0.00 0.00 0.00 0.00
0.03 0.02 0.02 0.05 0.15 0.25 0.02 0.00 0.00 0.00 0.00 0.00 0.00 0.00 0.00 0.00 0.00 0.00 0.00 0.00 0.00 0.00 0.00 0.00 0.00 0.00 0.00 0.00 0.00 0.00 0.00 0.00 0.00 0.00 0.00 0.00 0.00 0.00 0.00 0.00 0.00 0.00 0.00 0.00 0.00
0.04 0.03 0.04 0.04 0.09 0.01 0.00 0.00 0.00 0.00 0.00 0.00 0.00 0.00 0.00 0.00 0.00 0.00 0.00 0.00 0.00 0.00 0.00 0.00 0.00 0.00 0.00 0.00 0.00 0.00 0.00 0.00 0.00 0.00 0.00 0.00 0.00 0.00 0.00 0.00 0.00 0.00 0.00 0.00 0.00
0.20 0.11 0.05 0.03 0.00 0.00 0.00 0.00 0.00 0.00 0.00 0.00 0.00 0.00 0.00 0.00 0.00 0.00 0.00 0.00 0.00 0.00 0.00 0.00 0.00 0.00 0.00 0.00 0.00 0.00 0.00 0.00 0.00 0.00 0.00 0.00 0.00 0.00 0.00 0.00 0.00 0.00 0.00 0.00 0.00
0.04 0.01 0.00 0.00 0.00 0.00 0.00 0.00 0.00 0.00 0.00 0.00 0.00 0.00 0.00 0.00 0.00 0.00 0.00 0.00 0.00 0.00 0.00 0.00 0.00 0.00 0.00 0.00 0.00 0.00 0.00 0.00 0.00 0.00 0.00 0.00 0.00 0.00 0.00 0.00 0.00 0.00 0.00 0.00 0.00
0.00 0.00 0.00 0.00 0.00 0.00 0.00 0.00 0.00 0.00 0.00 0.00 0.00 0.00 0.00 0.00 0.00 0.00 0.00 0.00 0.00 0.00 0.00 0.00 0.00 0.00 0.00 0.00 0.00 0.00 0.00 0.00 0.00 0.00 0.00 0.00 0.00 0.00 0.00 0.00 0.00 0.00 0.00 0.00 0.00
0.00 0.00 0.00 0.00 0.00 0.00 0.00 0.00 0.00 0.00 0.00 0.00 0.00 0.00 0.00 0.00 0.00 0.00 0.00 0.00 0.00 0.00 0.00 0.00 0.00 0.00 0.00 0.00 0.00 0.00 0.00 0.00 0.00 0.00 0.00 0.00 0.00 0.00 0.00 0.00 0.00 0.00 0.00 0.00 0.00
0.00 0.00 0.00 0.00 0.00 0.00 0.00 0.00 0.00 0.00 0.00 0.00 0.00 0.00 0.00 0.00 0.00 0.00 0.00 0.00 0.00 0.00 0.00 0.00 0.00 0.00 0.00 0.00 0.00 0.00 0.00 0.00 0.00 0.00 0.00 0.00 0.00 0.00 0.00 0.00 0.00 0.00 0.00 0.00 0.00
0.00 0.00 0.00 0.00 0.00 0.00 0.00 0.00 0.00 0.00 0.00 0.00 0.00 0.00 0.00 0.00 0.00 0.00 0.00 0.00 0.00 0.00 0.00 0.00 0.00 0.00 0.00 0.00 0.00 0.00 0.00 0.00 0.00 0.00 0.00 0.00 0.00 0.00 0.00 0.00 0.00 0.00 0.00 0.00 0.00
0.00 0.00 0.00 0.00 0.00 0.00 0.00 0.00 0.00 0.00 0.00 0.00 0.00 0.00 0.00 0.00 0.00 0.00 0.00 0.00 0.00 0.00 0.00 0.00 0.00 0.00 0.00 0.00 0.00 0.00 0.00 0.00 0.00 0.00 0.00 0.00 0.00 0.00 0.00 0.00 0.00 0.00 0.00 0.00 0.00
0.00 0.00 0.00 0.00 0.00 0.00 0.00 0.00 0.00 0.00 0.00 0.00 0.00 0.00 0.00 0.00 0.00 0.00 0.00 0.00 0.00 0.00 0.00 0.00 0.00 0.00 0.00 0.00 0.00 0.00 0.00 0.00 0.00 0.00 0.00 0.00 0.00 0.00 0.00 0.00 0.00 0.00 0.00 0.00 0.00
0.00 0.00 0.00 0.00 0.00 0.00 0.00 0.00 0.00 0.00 0.00 0.00 0.00 0.00 0.00 0.00 0.00 0.00 0.00 0.00 0.00 0.00 0.00 0.00 0.00 0.00 0.00 0.00 0.00 0.00 0.00 0.00 0.00 0.00 0.00 0.00 0.00 0.00 0.00 0.00 0.00 0.00 0.00 0.00 0.00
0.00 0.00 0.00 0.00 0.00 0.00 0.00 0.00 0.00 0.00 0.00 0.00 0.00 0.00 0.00 0.00 0.00 0.00 0.00 0.00 0.00 0.00 0.00 0.00 0.00 0.00 0.00 0.00 0.00 0.00 0.00 0.00 0.00 0.00 0.00 0.00 0.00 0.00 0.00 0.00 0.00 0.00 0.00 0.00 0.00
0.00 0.00 0.00 0.00 0.00 0.00 0.00 0.00 0.00 0.00 0.00 0.00 0.00 0.00 0.00 0.00 0.00 0.00 0.00 0.00 0.00 0.00 0.00 0.00 0.00 0.00 0.00 0.00 0.00 0.00 0.00 0.00 0.00 0.00 0.00 0.00 0.00 0.00 0.00 0.00 0.00 0.00 0.00 0.00 0.00
0.00 0.00 0.00 0.00 0.00 0.00 0.00 0.00 0.00 0.00 0.00 0.00 0.00 0.00 0.00 0.00 0.00 0.00 0.00 0.00 0.00 0.00 0.00 0.00 0.00 0.00 0.00 0.00 0.00 0.00 0.00 0.00 0.00 0.00 0.00 0.00 0.00 0.00 0.00 0.00 0.00 0.00 0.00 0.00 0.00
0.00 0.00 0.00 0.00 0.00 0.00 0.00 0.00 0.00 0.00 0.00 0.00 0.00 0.00 0.00 0.00 0.00 0.00 0.00 0.00 0.00 0.00 0.00 0.00 0.00 0.00 0.00 0.00 0.00 0.00 0.00 0.00 0.00 0.00 0.00 0.00 0.00 0.00 0.00 0.00 0.00 0.00 0.00 0.00 0.00
0.00 0.00 0.00 0.00 0.00 0.00 0.00 0.00 0.00 0.00 0.00 0.00 0.00 0.00 0.00 0.00 0.00 0.00 0.00 0.00 0.00 0.00 0.00 0.00 0.00 0.00 0.00 0.00 0.00 0.00 0.00 0.00 0.00 0.00 0.00 0.00 0.00 0.00 0.00 0.00 0.00 0.00 0.00 0.00 0.00
0.00 0.00 0.00 0.00 0.00 0.00 0.00 0.00 0.00 0.00 0.00 0.00 0.00 0.00 0.00 0.00 0.00 0.00 0.00 0.00 0.00 0.00 0.00 0.00 0.00 0.00 0.00 0.00 0.00 0.00 0.00 0.00 0.00 0.00 0.00 0.00 0.00 0.00 0.00 0.00 0.00 0.00 0.00 0.00 0.00
0.00 0.00 0.00 0.00 0.00 0.00 0.00 0.00 0.00 0.00 0.00 0.00 0.00 0.00 0.00 0.00 0.00 0.00 0.00 0.00 0.00 0.00 0.00 0.00 0.00 0.00 0.00 0.00 0.00 0.00 0.00 0.00 0.00 0.00 0.00 0.00 0.00 0.00 0.00 0.00 0.00 0.00 0.00 0.00 0.00
0.00 0.00 0.00 0.00 0.00 0.00 0.00 0.00 0.00 0.00 0.00 0.00 0.00 0.00 0.00 0.00 0.00 0.00 0.00 0.00 0.00 0.00 0.00 0.00 0.00 0.00 0.00 0.00 0.00 0.00 0.00 0.00 0.00 0.00 0.00 0.00 0.00 0.00 0.00 0.00 0.00 0.00 0.00 0.00 0.00
0.00 0.00 0.00 0.00 0.00 0.00 0.00 0.00 0.00 0.00 0.00 0.00 0.00 0.00 0.00 0.00 0.00 0.00 0.00 0.00 0.00 0.00 0.00 0.00 0.00 0.00 0.00 0.00 0.00 0.00 0.00 0.00 0.00 0.00 0.00 0.00 0.00 0.00 0.00 0.00 0.00 0.00 0.00 0.00 0.00
0.00 0.00 0.00 0.00 0.00 0.00 0.00 0.00 0.00 0.00 0.00 0.00 0.00 0.00 0.00 0.00 0.00 0.00 0.00 0.00 0.00 0.00 0.00 0.00 0.00 0.00 0.00 0.00 0.00 0.00 0.00 0.00 0.00 0.00 0.00 0.00 0.00 0.00 0.00 0.00 0.00 0.00 0.00 0.00 0.00
0.00 0.00 0.00 0.00 0.00 0.00 0.00 0.00 0.00 0.00 0.00 0.00 0.00 0.00 0.00 0.00 0.00 0.00 0.00 0.00 0.00 0.00 0.00 0.00 0.00 0.00 0.00 0.00 0.00 0.00 0.00 0.00 0.00 0.00 0.00 0.00 0.00 0.00 0.00 0.00 0.00 0.00 0.00 0.00 0.00
0.00 0.00 0.00 0.00 0.00 0.00 0.00 0.00 0.00 0.00 0.00 0.00 0.00 0.00 0.00 0.00 0.00 0.00 0.00 0.00 0.00 0.00 0.00 0.00 0.00 0.00 0.00 0.00 0.00 0.00 0.00 0.00 0.00 0.00 0.00 0.00 0.00 0.00 0.00 0.00 0.00 0.00 0.00 0.00 0.00
MSLP
1012.80 1013.20 1013.32 1013.83 1014.33 1014.52 1014.44 1014.89 1015.33 1015.95 1016.41 1016.42 1016.44 1016.93 1017.17 1017.09 1017.04 1016.98 1017.80 1018.50 1017.76 1017.09 1016.71 1016.33 1015.95 1015.86 1015.82 1016.17 1016.54 1016.14 1015.14 1015.03 1015.51 1015.91 1016.40 1017.21 1017.10 1017.37 1017.53 1017.03 1016.75 1016.66 1016.78 1017.38 1018.07
1013.07 1013.25 1013.68 1014.22 1014.67 1015.13 1014.71 1015.29 1015.73 1016.17 1016.54 1016.49 1016.56 1017.08 1017.30 1017.18 1016.61 1017.57 1018.98 1018.13 1017.47 1017.05 1016.58 1016.11 1015.85 1015.79 1016.00 1016.46 1016.70 1016.14 1015.84 1016.30 1016.89 1017.04 1017.21 1017.65 1017.76 1017.58 1017.41 1016.91 1016.60 1016.68 1017.31 1017.82 1018.07
1013.44 1013.55 1014.32 1014.65 1015.09 1015.17 1015.07 1015.44 1016.03 1016.57 1016.63 1016.70 1016.81 1017.15 1017.32 1017.09 1016.62 1018.35 1018.48 1017.82 1017.41 1017.17 1016.86 1016.60 1016.28 1016.08 1016.32 1016.87 1017.35 1017.22 1017.07 1017.66 1018.04 1018.25 1018.49 1018.28 1018.16 1018.19 1017.56 1016.61 1016.28 1016.41 1017.01 1017.72 1018.07
1013.80 1014.16 1014.91 1015.16 1015.23 1015.88 1015.74 1015.94 1016.38 1016.89 1016.83 1016.79 1016.92 1017.20 1017.21 1016.93 1017.88 1018.91 1018.61 1017.88 1017.45 1017.19 1017.02 1016.81 1016.38 1016.33 1016.68 1017.09 1017.89 1017.77 1018.51 1018.62 1018.92 1019.25 1019.19 1018.82 1018.75 1018.17 1017.64 1016.60 1017.05 1017.17 1017.82 1018.06 1017.99
1014.49 1014.99 1015.03 1015.07 1015.45 1016.07 1016.13 1016.47 1016.75 1017.02 1017.06 1016.86 1016.97 1017.17 1016.99 1017.50 1018.98 1019.33 1018.75 1018.03 1017.59 1017.46 1017.47 1017.12 1016.71 1016.81 1017.09 1017.69 1018.13 1018.16 1018.92 1019.34 1019.72 1019.86 1019.73 1019.58 1018.86 1018.35 1017.27 1016.98 1017.08 1017.51 1017.83 1017.77 1017.90
1015.14 1015.34 1015.79 1015.67 1016.01 1016.28 1016.62 1016.88 1017.21 1017.34 1017.12 1016.98 1017.21 1017.19 1017.12 1017.86 1019.65 1019.45 1018.87 1018.07 1018.06 1017.78 1017.96 1017.74 1017.37 1017.35 1017.86 1018.57 1018.67 1019.18 1019.25 1019.61 1019.96 1019.95 1019.96 1019.68 1018.79 1018.74 1016.70 1017.01 1017.19 1017.41 1017.36 1017.53 1017.78
1015.44 1015.68 1015.98 1015.69 1016.37 1016.82 1017.17 1017.37 1017.50 1017.43 1017.21 1017.27 1017.49 1017.19 1017.94 1019.66 1019.95 1019.62 1019.13 1018.95 1018.81 1018.33 1018.40 1018.62 1018.31 1017.80 1018.56 1019.08 1019.79 1019.61 1019.29 1019.51 1019.84 1020.06 1019.89 1019.89 1017.96 1017.45 1016.72 1016.95 1016.93 1016.95 1017.07 1017.22 1017.43
1016.46 1016.69 1016.82 1016.90 1017.17 1017.29 1017.49 1017.53 1017.82 1017.67 1017.49 1017.54 1017.60 1017.01 1019.01 1020.01 1019.87 1019.46 1019.01 1018.76 1018.84 1018.88 1019.02 1019.26 1018.81 1018.68 1019.44 1020.00 1019.77 1019.30 1019.13 1018.75 1019.55 1019.88 1020.01 1019.67 1016.87 1016.44 1016.68 1016.61 1016.24 1016.29 1016.40 1016.75 1016.88
1017.29 1017.28 1017.39 1017.59 1017.77 1017.74 1017.86 1018.10 1018.02 1017.77 1017.74 1017.75 1017.42 1017.22 1019.65 1020.03 1020.02 1019.91 1019.71 1019.32 1019.17 1019.13 1019.19 1019.14 1019.09 1019.89 1020.19 1019.63 1019.23 1019.09 1018.40 1018.88 1019.26 1020.07 1019.98 1019.44 1016.85 1016.09 1016.42 1016.16 1015.60 1015.68 1015.69 1015.96 1016.49
1018.26 1018.16 1018.05 1018.10 1018.01 1017.98 1018.14 1018.21 1017.96 1017.66 1017.91 1017.71 1017.92 1018.13 1020.20 1020.68 1020.54 1020.38 1019.99 1019.70 1019.35 1019.19 1019.05 1019.21 1019.83 1020.10 1020.41 1019.90 1019.28 1019.29 1019.13 1019.27 1019.53 1019.86 1019.77 1018.83 1017.08 1015.70 1015.71 1015.67 1015.17 1015.25 1015.36 1015.70 1016.12
1019.09 1018.66 1018.76 1018.47 1018.38 1018.41 1018.33 1018.36 1018.32 1018.34 1019.14 1020.01 1020.34 1020.29 1020.84 1020.88 1020.71 1020.44 1020.34 1019.89 1019.60 1019.61 1019.70 1020.34 1020.76 1021.08 1021.56 1021.17 1020.82 1020.54 1020.14 1019.95 1019.81 1020.65 1020.22 1018.31 1016.88 1015.07 1014.90 1014.81 1014.67 1014.65 1014.88 1015.32 1015.77
1019.29 1019.05 1018.92 1018.82 1018.64 1018.54 1018.45 1019.26 1020.58 1020.57 1020.88 1021.01 1020.93 1020.98 1021.24 1021.21 1020.73 1020.48 1020.30 1020.19 1019.95 1020.21 1020.65 1020.82 1021.54 1022.42 1022.50 1022.06 1021.53 1021.24 1020.88 1020.46 1020.45 1020.96 1020.67 1018.29 1016.00 1014.52 1014.29 1014.30 1014.37 1014.41 1014.60 1015.11 1015.65
1019.69 1019.51 1019.06 1018.79 1018.64 1018.83 1019.55 1020.70 1021.03 1020.81 1020.34 1021.44 1021.48 1021.30 1021.50 1021.31 1021.33 1021.20 1020.89 1020.93 1020.82 1021.01 1021.12 1021.19 1022.76 1023.00 1022.77 1022.41 1021.93 1021.77 1021.69 1021.84 1022.17 1021.32 1020.57 1019.20 1015.39 1013.95 1014.02 1014.19 1014.31 1014.46 1014.72 1015.06 1015.47
1019.68 1019.25 1018.95 1018.55 1018.73 1019.90 1020.43 1021.09 1020.99 1020.79 1020.71 1021.93 1021.48 1021.66 1021.58 1021.40 1021.56 1021.77 1021.68 1021.50 1021.42 1021.77 1022.08 1022.57 1023.37 1023.22 1023.03 1022.82 1022.74 1022.43 1022.86 1022.89 1022.62 1021.94 1020.60 1019.91 1016.21 1013.60 1013.45 1013.54 1013.84 1013.82 1014.17 1014.65 1015.23
1020.11 1019.69 1019.35 1018.44 1019.50 1020.21 1021.33 1021.17 1020.97 1020.48 1021.17 1022.53 1021.77 1021.58 1021.47 1021.35 1021.93 1021.67 1021.94 1021.25 1021.79 1022.24 1022.57 1023.24 1023.29 1023.36 1023.20 1023.32 1023.32 1023.19 1023.38 1023.21 1022.89 1022.28 1021.68 1019.76 1018.43 1013.78 1013.76 1013.19 1013.20 1013.40 1014.03 1014.72 1015.27
1020.22 1019.94 1019.73 1019.83 1020.38 1021.59 1021.41 1021.21 1020.90 1020.86 1022.11 1022.51 1022.10 1021.66 1021.36 1021.47 1021.72 1021.68 1021.61 1021.70 1022.39 1022.34 1022.46 1023.15 1023.66 1023.67 1023.53 1023.65 1023.58 1023.64 1023.43 1023.14 1022.76 1022.18 1021.32 1020.07 1018.99 1014.42 1013.65 1013.60 1013.30 1013.67 1014.21 1014.81 1015.24
1020.66 1020.32 1020.01 1020.63 1021.42 1021.55 1021.33 1020.93 1021.08 1021.43 1023.32 1022.65 1022.22 1021.94 1021.75 1021.77 1021.76 1021.75 1021.80 1021.89 1022.22 1022.57 1022.75 1023.14 1023.45 1023.75 1023.86 1023.49 1023.64 1023.51 1023.31 1022.70 1022.24 1021.55 1020.63 1020.33 1019.20 1014.91 1014.14 1014.02 1014.07 1014.14 1014.44 1014.88 1015.22
1020.85 1020.55 1021.38 1021.52 1021.67 1021.53 1021.04 1020.73 1021.18 1022.33 1022.52 1022.61 1022.42 1022.20 1021.87 1022.05 1022.03 1021.92 1021.94 1022.11 1022.64 1022.52 1022.61 1022.76 1023.30 1023.52 1023.77 1023.62 1023.58 1023.62 1023.54 1022.92 1022.03 1021.04 1019.84 1019.77 1017.64 1014.48 1014.30 1014.47 1014.64 1014.86 1014.99 1015.06 1015.03
1020.99 1021.03 1021.25 1021.70 1021.66 1021.37 1020.82 1021.08 1022.06 1022.34 1022.47 1022.48 1022.44 1022.08 1022.03 1022.15 1022.13 1021.97 1022.03 1022.13 1022.53 1022.69 1022.66 1022.79 1023.19 1023.67 1023.86 1023.93 1024.09 1023.76 1023.42 1023.46 1022.45 1021.67 1020.24 1017.72 1016.22 1014.39 1014.12 1014.18 1014.61 1014.84 1014.99 1014.89 1014.98
1021.06 1021.22 1021.56 1021.87 1021.75 1021.22 1020.91 1022.08 1022.68 1022.90 1022.80 1022.61 1022.17 1022.26 1021.92 1022.11 1022.09 1021.99 1022.10 1022.44 1022.71 1023.09 1023.22 1023.34 1023.53 1023.73 1023.98 1024.04 1024.16 1023.79 1023.68 1023.28 1022.33 1020.85 1019.01 1016.91 1016.19 1015.11 1014.67 1014.77 1014.86 1014.92 1015.02 1014.93 1014.82
1021.14 1021.24 1022.01 1021.97 1021.80 1021.17 1021.69 1022.63 1023.01 1023.21 1023.08 1022.74 1022.46 1022.29 1022.30 1022.29 1022.39 1022.40 1022.50 1022.83 1023.01 1023.47 1023.61 1023.59 1023.68 1023.86 1024.00 1023.56 1023.16 1023.82 1023.29 1023.02 1022.46 1021.22 1019.51 1017.69 1015.26 1014.76 1015.11 1015.34 1015.27 1015.17 1015.13 1014.87 1014.50
1021.38 1021.48 1022.07 1022.08 1021.73 1022.18 1022.38 1022.91 1023.16 1023.27 1023.22 1023.00 1022.78 1022.59 1022.47 1022.63 1022.55 1022.65 1022.62 1022.79 1023.05 1023.35 1023.48 1023.75 1023.58 1023.15 1022.80 1023.48 1023.50 1023.20 1022.72 1022.34 1021.64 1021.21 1020.36 1019.12 1015.59 1014.75 1015.15 1015.47 1015.54 1015.25 1015.00 1014.74 1014.46
1021.63 1021.92 1021.83 1021.70 1021.94 1022.39 1023.02 1023.09 1023.24 1023.31 1023.28 1023.17 1023.04 1023.02 1023.01 1022.89 1022.97 1022.93 1022.98 1023.21 1023.42 1023.53 1023.55 1023.75 1023.49 1022.87 1022.79 1023.49 1023.47 1023.04 1022.53 1022.29 1022.10 1021.49 1019.78 1018.38 1015.01 1014.86 1015.16 1015.28 1015.16 1015.06 1014.78 1014.46 1014.26
1022.11 1022.31 1022.15 1022.25 1023.22 1022.55 1022.71 1023.04 1023.25 1023.45 1023.46 1023.46 1023.42 1023.30 1023.23 1023.20 1023.37 1023.27 1023.22 1023.45 1023.73 1023.77 1023.92 1023.90 1023.51 1022.86 1022.29 1022.25 1022.33 1022.41 1022.17 1022.13 1021.76 1021.05 1018.81 1016.82 1014.99 1014.45 1014.56 1015.09 1014.97 1014.67 1014.68 1014.47 1014.25
1022.93 1023.91 1024.21 1023.42 1023.30 1023.20 1023.00 1023.10 1023.20 1023.39 1023.56 1023.56 1023.62 1023.47 1023.29 1023.25 1023.31 1023.26 1023.36 1023.47 1023.86 1024.05 1024.23 1024.16 1023.49 1023.17 1022.54 1022.14 1022.07 1021.69 1021.38 1021.37 1021.01 1019.97 1019.15 1015.96 1015.75 1015.08 1015.20 1015.27 1015.13 1015.14 1014.84 1014.48 1014.19
1023.95 1024.39 1024.63 1024.09 1023.99 1023.40 1023.37 1023.25 1023.09 1023.23 1023.32 1023.47 1023.51 1023.41 1023.47 1023.16 1022.85 1022.96 1023.06 1023.32 1023.25 1024.18 1024.25 1024.50 1023.73 1023.58 1022.45 1021.58 1021.51 1020.63 1020.00 1020.10 1020.06 1019.58 1018.87 1017.61 1016.10 1015.86 1015.55 1015.74 1015.61 1015.20 1014.84 1014.50 1014.12
1024.89 1024.88 1024.49 1024.37 1023.93 1023.56 1023.36 1023.42 1023.31 1023.29 1023.29 1023.14 1023.15 1023.30 1023.38 1023.10 1023.06 1023.01 1023.11 1023.13 1023.37 1023.60 1023.98 1024.28 1023.95 1023.57 1021.89 1021.60 1020.94 1019.18 1017.96 1018.17 1018.51 1018.58 1018.25 1017.97 1016.59 1016.31 1016.01 1016.00 1015.68 1015.24 1014.81 1014.32 1013.87
Thickness
5484 5493 5503 5508 5519 5533 5550 5554 5564 5576 5586 5598 5609 5615 5624 5635 5646 5654 5652 5657 5670 5681 5691 5698 5705 5708 5711 5704 5703 5707 5710 5704 5699 5699 5700 5696 5696 5696 5694 5695 5699 5702 5699 5697 5693
5487 5497 5502 5509 5519 5532 5550 5547 5558 5572 5584 5597 5608 5613 5622 5633 5647 5645 5644 5659 5671 5679 5688 5694 5697 5704 5700 5698 5698 5703 5705 5696 5694 5694 5693 5689 5687 5689 5689 5692 5695 5696 5694 5692 5691
5493 5500 5498 5508 5518 5532 5540 5544 5555 5569 5583 5595 5606 5613 5621 5632 5646 5636 5647 5660 5670 5677 5684 5689 5695 5698 5692 5691 5686 5688 5691 5684 5681 5682 5680 5682 5681 5681 5684 5689 5698 5697 5694 5688 5685
5499 5502 5497 5508 5526 5529 5540 5548 5557 5569 5584 5597 5607 5614 5624 5634 5634 5633 5645 5659 5668 5676 5681 5684 5689 5688 5686 5685 5679 5680 5672 5675 5673 5671 5671 5675 5675 5679 5681 5693 5690 5690 5682 5679 5680
5508 5509 5516 5523 5529 5534 5540 5547 5560 5573 5586 5600 5609 5616 5627 5627 5623 5630 5644 5656 5666 5672 5673 5679 5683 5683 5681 5677 5676 5677 5668 5666 5663 5662 5664 5665 5670 5673 5679 5688 5688 5683 5678 5677 5676
5518 5522 5522 5533 5534 5536 5546 5552 5562 5576 5590 5602 5610 5618 5627 5625 5621 5629 5641 5654 5659 5666 5666 5672 5677 5679 5671 5664 5670 5662 5662 5660 5658 5659 5659 5659 5668 5662 5686 5681 5678 5675 5676 5674 5670
5531 5533 5534 5540 5541 5544 5550 5555 5567 5580 5594 5603 5610 5620 5619 5613 5618 5628 5639 5646 5652 5660 5661 5662 5668 5675 5666 5658 5651 5654 5658 5656 5654 5654 5656 5652 5671 5664 5680 5676 5674 5673 5671 5669 5666
5533 5534 5536 5536 5545 5551 5554 5563 5571 5584 5595 5603 5611 5623 5609 5613 5619 5628 5637 5645 5650 5653 5654 5655 5662 5661 5654 5648 5651 5653 5657 5664 5652 5650 5648 5651 5680 5676 5673 5671 5674 5672 5671 5665 5663
5536 5536 5539 5541 5546 5553 5557 5565 5576 5588 5597 5604 5615 5623 5606 5612 5617 5624 5631 5638 5644 5648 5650 5654 5655 5646 5645 5652 5656 5653 5666 5653 5654 5641 5640 5643 5667 5673 5667 5669 5670 5670 5669 5666 5658
5536 5539 5542 5547 5553 5557 5563 5571 5583 5592 5597 5606 5612 5620 5605 5604 5612 5618 5627 5633 5638 5643 5648 5649 5644 5644 5641 5648 5657 5645 5647 5644 5640 5641 5636 5640 5652 5666 5667 5663 5664 5664 5662 5658 5653
5536 5543 5544 5551 5556 5561 5568 5577 5588 5592 5590 5586 5588 5596 5597 5605 5611 5617 5622 5630 5636 5637 5637 5632 5626 5628 5623 5627 5628 5626 5630 5631 5638 5624 5624 5642 5646 5662 5666 5662 5661 5661 5660 5656 5652
5543 5546 5551 5555 5561 5568 5575 5577 5572 5585 5583 5585 5589 5594 5597 5602 5611 5617 5624 5628 5631 5626 5626 5634 5621 5614 5612 5616 5619 5618 5622 5631 5628 5615 5614 5636 5647 5663 5661 5659 5658 5659 5657 5654 5649
5551 5553 5558 5566 5571 5574 5574 5572 5575 5582 5597 5585 5588 5594 5597 5604 5604 5610 5617 5617 5621 5618 5622 5629 5611 5606 5610 5612 5617 5615 5615 5610 5599 5608 5611 5615 5660 5663 5656 5652 5652 5652 5651 5649 5648
5564 5567 5570 5576 5580 5573 5575 5574 5580 5585 5593 5584 5591 5593 5598 5600 5603 5605 5609 5614 5615 5612 5611 5609 5600 5603 5605 5607 5606 5613 5598 5594 5594 5599 5617 5604 5645 5667 5660 5655 5650 5657 5655 5653 5649
5570 5573 5577 5586 5581 5582 5575 5578 5583 5593 5585 5581 5588 5596 5598 5604 5601 5607 5606 5615 5608 5605 5607 5601 5599 5599 5602 5598 5597 5601 5590 5589 5588 5590 5586 5607 5604 5666 5644 5652 5655 5658 5654 5649 5645
5578 5580 5582 5581 5580 5573 5577 5582 5590 5593 5579 5575 5586 5592 5600 5601 5601 5604 5607 5609 5602 5603 5604 5596 5592 5593 5594 5591 5591 5588 5589 5587 5586 5585 5599 5595 5595 5649 5651 5644 5652 5654 5651 5646 5643
5582 5585 5587 5583 5582 5578 5581 5590 5586 5589 5570 5580 5586 5590 5594 5595 5599 5600 5600 5603 5604 5597 5592 5594 5593 5588 5587 5593 5590 5590 5587 5604 5607 5604 5621 5580 5588 5640 5647 5647 5647 5649 5648 5644 5640
5588 5589 5584 5582 5582 5584 5590 5597 5584 5576 5580 5579 5582 5587 5594 5591 5594 5596 5598 5600 5591 5596 5596 5601 5600 5591 5588 5591 5590 5584 5582 5595 5599 5614 5620 5583 5610 5647 5646 5642 5641 5639 5638 5637 5639
5593 5593 5590 5586 5587 5589 5601 5588 5586 5585 5584 5584 5585 5593 5592 5590 5593 5596 5596 5599 5594 5594 5601 5601 5597 5586 5584 5584 5583 5584 5589 5578 5578 5573 5589 5618 5625 5649 5646 5645 5642 5640 5636 5638 5636
5599 5598 5595 5591 5592 5598 5601 5585 5582 5577 5582 5585 5594 5589 5597 5593 5596 5598 5596 5595 5593 5589 5589 5589 5590 5582 5581 5582 5579 5583 5581 5588 5581 5598 5610 5634 5617 5633 5630 5633 5636 5636 5634 5634 5633
5604 5607 5597 5595 5596 5606 5595 5588 5583 5581 5585 5590 5591 5592 5592 5593 5591 5593 5594 5592 5591 5585 5585 5585 5586 5585 5579 5584 5593 5580 5584 5579 5580 5587 5605 5613 5642 5636 5618 5625 5627 5629 5628 5630 5631
5604 5610 5598 5597 5609 5593 5596 5589 5585 5586 5587 5589 5591 5593 5595 5590 5592 5591 5594 5593 5591 5589 5588 5583 5585 5589 5595 5579 5579 5583 5589 5591 5594 5591 5584 5585 5619 5632 5626 5619 5617 5623 5624 5624 5624
5606 5604 5601 5602 5607 5599 5588 5588 5588 5589 5589 5590 5590 5590 5589 5590 5591 5588 5588 5587 5585 5586 5585 5582 5585 5593 5592 5581 5577 5582 5585 5585 5579 5578 5588 5597 5638 5625 5618 5616 5619 5617 5619 5620 5619
5602 5603 5603 5597 5582 5597 5595 5590 5589 5585 5586 5585 5586 5587 5587 5586 5582 5586 5586 5584 5580 5582 5578 5579 5581 5590 5606 5597 5592 5584 5583 5579 5581 5579 5602 5609 5630 5632 5622 5611 5612 5613 5612 5612 5611
5587 5581 5572 5591 5591 5586 5587 5587 5587 5587 5582 5582 5582 5583 5586 5585 5582 5581 5581 5582 5577 5575 5573 5574 5580 5574 5580 5583 5582 5582 5586 5583 5574 5586 5582 5623 5609 5611 5608 5604 5603 5602 5604 5604 5604
5585 5581 5564 5572 5568 5581 5577 5583 5585 5582 5583 5581 5581 5581 5579 5584 5589 5586 5581 5579 5585 5569 5571 5563 5575 5561 5571 5583 5575 5579 5588 5584 5579 5581 5581 5587 5596 5597 5602 5596 5595 5598 5599 5600 5600
5557 5559 5568 5556 5569 5577 5579 5576 5577 5576 5577 5580 5580 5578 5574 5579 5579 5578 5577 5577 5575 5574 5568 5564 5564 5564 5581 5570 5575 5596 5604 5596 5585 5578 5580 5576 5592 5591 5590 5588 5589 5592 5592 5592 5592